Flag for France Weather past 2 weeks in Rodez, France

Now
72 °F

Clear.


Feels Like: 75 °F
Forecast: 60 / 75 °F
Wind: 12 mph from Southeast

Location: Rodez Airport

Current Time: Sep 19, 2014 at 7:54:56 PM

Latest Report: Sep 19, 2014 at 7:00 PM


Visibility: N/A

Pressure: 29.95 "Hg

Humidity: 65%

Dew point: 59 °F

Location of RodezLocation

Historic Weather in Rodez — Graph

°F

Rodez temperature yesterday

Maximum temperature yesterday: 73 °F (at 5:00 PM)
Minimum temperature yesterday: 61 °F (at 1:30 AM)
Average temperature yesterday: 66 °F

Past Weeks' High & Low Weather Summary

 TemperatureHumidityPressure
High86 °F (Sep 7, 5:00 PM)100% (Sep 6, 4:30 AM)30.12 "Hg (Sep 6, 4:30 AM)
Low45 °F (Sep 12, 7:30 AM)36% (Sep 6, 1:30 PM)29.80 "Hg (Sep 17, 6:00 AM)
Average65 °F74%29.98 "Hg
* Reported Sep 4 6:00 PM — Sep 19 6:30 PM, Rodez, Weather by CustomWeather, © 2014

Note: Actual official high and low records may vary slightly from our data, if they occured in-between our weather recording intervals... More about our weather records

Advertising

Rodez weather history for previous 24 hours

 ConditionsComfort  
Time TempWeatherWind HumidityBarometerVisibility
6:30 PM
Sep 19
73 °FClear.13 mph65%29.92 "HgN/A
6:00 PM73 °FClear.12 mph65%29.92 "HgN/A
5:30 PM75 °FClear.13 mph61%29.92 "HgN/A
5:00 PM73 °FClear.14 mph65%29.92 "HgN/A
4:30 PM75 °FBroken clouds.12 mph57%29.92 "HgN/A
4:00 PM75 °FScattered clouds.9 mph61%29.92 "HgN/A
3:30 PM77 °FBroken clouds.13 mph57%29.92 "HgN/A
3:00 PM73 °FPassing clouds.10 mph61%29.92 "HgN/A
2:30 PM75 °FPartly sunny.10 mph57%29.92 "HgN/A
2:00 PM73 °FScattered clouds.12 mph65%29.92 "HgN/A
1:30 PM75 °FScattered clouds.10 mph65%29.92 "HgN/A
1:00 PM75 °FPassing clouds.10 mph61%29.92 "HgN/A
12:30 PM73 °FBroken clouds.12 mph65%29.95 "HgN/A
12:00 PM72 °FCloudy.10 mph69%29.95 "HgN/A
11:30 AM70 °FOvercast.12 mph73%29.95 "HgN/A
11:00 AM70 °FClear.9 mph73%29.92 "HgN/A
10:30 AM68 °FClear.10 mph78%29.92 "HgN/A
10:00 AM68 °FClear.13 mph78%29.92 "HgN/A
9:30 AM68 °FPartly sunny.15 mph78%29.92 "HgN/A
9:00 AM68 °FClear.12 mph73%29.92 "HgN/A
8:30 AM66 °FPassing clouds.12 mph78%29.92 "HgN/A
8:00 AM66 °FPassing clouds.9 mph78%29.89 "HgN/A
7:30 AM66 °FPartly cloudy.7 mph78%29.89 "HgN/A
7:00 AM66 °FMostly cloudy.12 mph78%29.86 "HgN/A
6:30 AM66 °FClear.8 mph78%29.86 "HgN/A
6:00 AM66 °FPassing clouds.10 mph78%29.86 "HgN/A
5:30 AM66 °FMild.7 mph78%29.86 "HgN/A
4:30 AM66 °FClear.9 mph78%29.86 "HgN/A
4:00 AM66 °FClear.9 mph73%29.86 "HgN/A
3:30 AM66 °FClear.10 mph73%29.86 "HgN/A
3:00 AM68 °FClear.12 mph73%29.89 "HgN/A
2:30 AM68 °FClear.12 mph78%29.89 "HgN/A
2:00 AM68 °FClear.12 mph78%29.89 "HgN/A
1:30 AM66 °FClear.9 mph83%29.89 "HgN/A
1:00 AM66 °FClear.6 mph83%29.89 "HgN/A
12:30 AM66 °FClear.5 mph78%29.89 "HgN/A
12:00 AM66 °FClear.3 mph78%29.89 "HgN/A
11:30 PM
Sep 18
66 °FClear.5 mph78%29.89 "HgN/A
11:00 PM66 °FPassing clouds.5 mph78%29.89 "HgN/A
10:30 PM66 °FPassing clouds.6 mph78%29.89 "HgN/A
10:00 PM64 °FPassing clouds.5 mph83%29.89 "HgN/A
9:30 PM68 °FClear.7 mph73%29.89 "HgN/A
9:00 PM66 °FClear.7 mph78%29.89 "HgN/A
8:30 PM68 °FClear.6 mph73%29.86 "HgN/A
8:00 PM68 °FClear.8 mph73%29.86 "HgN/A
7:30 PM70 °FScattered clouds.10 mph73%29.86 "HgN/A
7:00 PM72 °FPassing clouds.12 mph69%29.86 "HgN/A
Weather by CustomWeather, © 2014

See weather overviewHow to use our weather pages